Regional Weather Roundup
Issued by NWS

Home | Current Version | Previous Version | Graphics & Text | Print | Product List | Glossary On
Versions: 1 2 3 4 5 6 7 8 9 10 11 12 13 14 15 16 17 18 19 20 21 22 23 24 25 26 27 28 29 30 31 32 33 34 35 36 37 38 39 40 41 42 43 44 45 46 47 48 49 50
000
ASUS45 KSLC 051910
RWRUT

UTAH REGIONAL WEATHER ROUNDUP
NATIONAL WEATHER SERVICE SALT LAKE CITY UT
1200 PM MST THU MAR 05 2015

UTZ001>011-023>025-052000-

NORTHERN UTAH

CITY           SKY/WX    TMP DP  RH WIND       PRES   REMARKS
BRIGHAM CITY   SUNNY     38  20  47 CALM      30.46F
HILL AFB       SUNNY     38  16  39 E5        30.44F WCI  35
LOGAN          NOT AVBL
OGDEN          SUNNY     39  18  42 S3        30.44F
PROVO AIRPORT  NOT AVBL
SALT LAKE CITY MOSUNNY   41  22  46 S6        30.45S
VERNAL         SUNNY     30  16  56 VRB3      30.41F
WENDOVER       SUNNY     37  21  52 E5        30.44F WCI  34
HEBER CITY     MOSUNNY   32  18  55 CALM      30.43F
WEST JORDAN    SUNNY     39  23  52 S8        30.45S WCI  34

$$

UTZ012>022-026-027-052000-

SOUTHERN/CENTRAL UTAH

CITY           SKY/WX    TMP DP  RH WIND       PRES   REMARKS
BLANDING       SUNNY     37  15  39 S5        30.47F WCI  33
BRYCE CANYON   SUNNY     25  12  58 N6        30.40F WCI  18
CEDAR CITY     SUNNY     33   6  32 CALM      30.40F
DELTA          SUNNY     39  20  46 CALM      30.45F
HANKSVILLE     SUNNY     41  19  42 CALM      30.45F
MILFORD        SUNNY     40  20  44 CALM      30.43S
MOAB/CYNLANDS  SUNNY     41  16  36 SW5       30.42F
PRICE          SUNNY     36  15  42 CALM      30.40F
ST GEORGE      PTCLDY    46  28  49 N5        30.45F
KANAB          SUNNY     45  19  36 CALM      30.45S

$$

REGIONAL REPORTS     COLORADO/ARIZONA

CITY           SKY/WX    TMP DP  RH WIND       PRES   REMARKS
CRAIG, CO      PTSUNNY   28  10  46 NE10      30.38F WCI  19
GRAND JUNCTION SUNNY     39   9  29 CALM      30.43F
RIFLE          SUNNY     32  11  41 CALM      30.42F
MONTROSE       SUNNY     35  11  36 CALM      30.43F
CORTEZ         SUNNY     41  14  33 VRB5      30.39F
PAGE, AZ       SUNNY     44  20  38 N6        30.43F
GRAND CANYON   SUNNY     45   4  18 CALM      30.39F
KINGMAN        NOT AVBL
FLAGSTAFF      SUNNY     40  10  29 E9        30.39S WCI  34

$$

REGIONAL REPORTS    NEVADA/IDAHO/WYOMING

CITY           SKY/WX    TMP DP  RH WIND       PRES   REMARKS
LAS VEGAS, NV  SUNNY     57  24  28 SE6       30.37F
ELY            SUNNY     43   9  24 CALM      30.40S
ELKO           SUNNY     43  14  31 VRB3      30.41F
POCATELLO, ID  SUNNY     43  16  33 SW12      30.40F
BURLEY         MOSUNNY   44  13  28 SW6       30.38F
EVANSTON, WY   MOSUNNY   30  15  53 SW12      30.38S WCI  20
ROCK SPRINGS   MOSUNNY   30  17  58 W21       30.31S WCI  17

$$



USA.gov is the U.S. government's official web portal to all federal, state and local government web resources and services.